Temp
-11 -11 -11 -11 -12 -12 -12 -13 -13 -12 -13 -13 -13 -13 -13 -12 -12 -12 -12 -12 -12 -13 -13 -13 -13 -12 -13 -13 -13 -14 -14 -14 -14 -14 -14 -14 -14 -14 -14 -14 -14 -14 -14
-10 -10 -11 -11 -11 -12 -12 -12 -13 -13 -13 -13 -13 -13 -13 -13 -12 -12 -12 -13 -13 -13 -13 -13 -13 -13 -13 -14 -14 -15 -15 -15 -15 -15 -15 -15 -14 -14 -14 -14 -14 -14 -14
-10 -10 -10 -11 -11 -11 -12 -12 -13 -13 -13 -13 -13 -13 -13 -13 -13 -13 -13 -13 -13 -14 -14 -14 -14 -14 -14 -14 -14 -15 -15 -16 -15 -15 -15 -15 -15 -15 -15 -16 -15 -15 -16
-11 -11 -11 -10 -12 -12 -12 -12 -13 -13 -13 -13 -13 -13 -13 -13 -13 -13 -13 -13 -14 -14 -14 -14 -14 -14 -14 -15 -15 -15 -16 -16 -16 -16 -16 -16 -16 -16 -16 -16 -16 -17 -17
-11 -11 -11 -12 -12 -11 -12 -12 -13 -13 -13 -13 -13 -14 -14 -13 -13 -13 -13 -14 -14 -14 -14 -14 -15 -15 -15 -15 -15 -16 -16 -16 -16 -17 -17 -17 -17 -17 -17 -17 -17 -18 -18
-12 -12 -12 -12 -12 -12 -12 -13 -13 -13 -13 -13 -13 -14 -14 -14 -14 -14 -14 -14 -15 -14 -14 -15 -15 -15 -15 -16 -16 -16 -16 -17 -17 -17 -18 -18 -18 -18 -18 -19 -18 -18 -19
-12 -12 -12 -12 -12 -12 -13 -14 -14 -13 -14 -14 -14 -14 -13 -14 -14 -15 -15 -14 -14 -15 -15 -15 -16 -16 -16 -16 -16 -17 -17 -17 -17 -18 -18 -19 -19 -19 -19 -19 -19 -19 -19
-12 -12 -12 -12 -12 -13 -13 -14 -14 -14 -14 -14 -14 -14 -14 -14 -14 -15 -15 -15 -15 -15 -16 -16 -16 -16 -17 -17 -17 -18 -18 -18 -18 -19 -19 -19 -20 -20 -20 -19 -19 -20 -20
-12 -13 -13 -13 -13 -13 -13 -13 -14 -14 -14 -14 -15 -13 -14 -14 -15 -14 -15 -16 -16 -16 -16 -16 -17 -18 -17 -18 -18 -19 -19 -19 -19 -19 -19 -20 -20 -20 -20 -20 -20 -21 -21
-13 -13 -14 -14 -14 -15 -15 -14 -14 -14 -14 -14 -15 -15 -15 -15 -16 -16 -16 -17 -17 -17 -17 -18 -18 -18 -19 -19 -19 -20 -20 -20 -20 -20 -20 -20 -20 -20 -20 -20 -20 -21 -22
-15 -15 -15 -15 -14 -14 -15 -14 -14 -14 -14 -15 -15 -15 -15 -16 -17 -17 -17 -17 -18 -19 -19 -19 -19 -19 -19 -20 -20 -20 -20 -20 -20 -20 -20 -20 -21 -21 -20 -20 -21 -21 -21
-16 -16 -16 -15 -15 -16 -14 -14 -14 -15 -14 -15 -16 -16 -16 -16 -17 -18 -19 -20 -20 -20 -19 -19 -20 -20 -20 -20 -20 -20 -20 -20 -20 -21 -21 -21 -21 -21 -21 -21 -22 -22 -22
-17 -17 -17 -17 -17 -17 -17 -17 -17 -16 -17 -17 -17 -18 -19 -19 -19 -19 -20 -20 -20 -20 -20 -20 -20 -20 -20 -21 -21 -21 -21 -21 -22 -22 -22 -22 -22 -22 -22 -22 -22 -23 -23
-17 -17 -18 -17 -17 -18 -18 -19 -18 -18 -18 -19 -20 -20 -20 -20 -20 -20 -21 -21 -21 -21 -21 -21 -21 -21 -21 -21 -21 -22 -22 -22 -21 -22 -22 -22 -22 -22 -22 -23 -23 -24 -24
-19 -19 -18 -18 -19 -19 -19 -19 -19 -19 -20 -20 -20 -20 -21 -21 -21 -21 -22 -22 -21 -21 -21 -22 -22 -22 -21 -21 -22 -22 -23 -23 -23 -23 -23 -23 -23 -23 -24 -24 -24 -24 -25
-19 -19 -19 -19 -19 -20 -20 -20 -20 -21 -22 -21 -21 -21 -21 -21 -22 -22 -22 -22 -22 -23 -23 -22 -22 -22 -22 -22 -22 -23 -23 -23 -24 -24 -24 -24 -24 -24 -24 -24 -25 -25 -25
-19 -20 -20 -20 -20 -21 -21 -22 -22 -22 -22 -22 -22 -22 -23 -24 -24 -24 -25 -25 -24 -24 -24 -24 -24 -23 -23 -23 -23 -23 -24 -24 -25 -25 -25 -25 -25 -24 -25 -25 -25 -25 -25
-21 -21 -21 -22 -22 -22 -22 -22 -23 -23 -23 -23 -23 -24 -24 -25 -25 -26 -26 -26 -26 -25 -25 -25 -24 -24 -24 -24 -24 -24 -25 -25 -25 -25 -25 -25 -25 -25 -26 -26 -25 -26 -26
-22 -22 -22 -22 -22 -23 -23 -23 -23 -23 -23 -24 -25 -25 -25 -25 -26 -26 -26 -26 -26 -26 -26 -25 -25 -25 -25 -25 -24 -25 -25 -25 -25 -26 -26 -26 -26 -26 -26 -26 -26 -26 -26
-22 -22 -22 -22 -23 -23 -23 -24 -24 -24 -24 -25 -25 -25 -26 -26 -26 -26 -26 -26 -26 -26 -26 -26 -26 -26 -26 -26 -26 -25 -26 -26 -26 -26 -26 -26 -26 -26 -26 -26 -26 -26 -26
-22 -23 -23 -23 -24 -24 -24 -24 -24 -24 -25 -25 -25 -26 -26 -26 -26 -26 -26 -26 -26 -26 -27 -27 -27 -27 -27 -26 -26 -26 -26 -26 -26 -26 -27 -26 -26 -26 -26 -27 -27 -27 -27
-23 -23 -24 -24 -24 -24 -24 -24 -25 -25 -25 -26 -26 -26 -26 -26 -26 -26 -26 -27 -26 -27 -27 -27 -27 -27 -27 -27 -27 -27 -27 -27 -27 -27 -27 -27 -27 -27 -27 -27 -27 -27 -27
-24 -24 -24 -24 -25 -24 -24 -25 -25 -26 -26 -26 -26 -26 -26 -26 -26 -27 -27 -27 -27 -27 -27 -27 -27 -27 -27 -27 -27 -27 -27 -27 -27 -28 -28 -28 -28 -27 -27 -27 -27 -28 -28
-25 -25 -25 -25 -24 -25 -25 -25 -26 -26 -26 -26 -26 -26 -26 -27 -27 -27 -27 -27 -27 -27 -27 -27 -27 -27 -27 -27 -27 -27 -27 -27 -28 -28 -28 -28 -28 -28 -28 -28 -28 -28 -28
-25 -25 -25 -25 -25 -25 -25 -25 -26 -26 -26 -26 -26 -27 -27 -27 -27 -27 -27 -27 -27 -27 -27 -27 -27 -27 -27 -27 -27 -28 -28 -28 -28 -28 -28 -28 -28 -28 -28 -28 -28 -28 -28
-24 -25 -25 -25 -25 -25 -25 -25 -26 -26 -27 -27 -27 -27 -27 -27 -28 -28 -28 -28 -28 -28 -27 -27 -27 -27 -27 -27 -27 -28 -28 -28 -28 -28 -28 -28 -28 -28 -28 -28 -28 -28 -29
Height
5769 5764 5768 5766 5768 5771 5775 5771 5773 5770 5768 5768 5768 5767 5766 5766 5766 5766 5767 5768 5767 5765 5764 5762 5762 5761 5759 5757 5755 5753 5751 5750 5749 5748 5746 5744 5743 5742 5741 5738 5736 5734 5732
5760 5758 5760 5760 5762 5763 5765 5766 5764 5762 5761 5760 5758 5758 5758 5757 5757 5757 5757 5756 5755 5755 5754 5752 5752 5750 5748 5745 5743 5740 5738 5737 5737 5736 5733 5731 5730 5728 5727 5725 5722 5721 5719
5753 5752 5754 5755 5754 5755 5756 5755 5755 5753 5752 5750 5749 5748 5747 5746 5746 5746 5745 5745 5745 5744 5742 5740 5738 5736 5734 5733 5731 5728 5725 5722 5721 5721 5719 5717 5716 5714 5713 5711 5709 5707 5705
5746 5745 5745 5745 5746 5746 5745 5747 5745 5745 5742 5739 5738 5737 5736 5733 5732 5733 5733 5733 5732 5731 5729 5727 5726 5724 5722 5721 5718 5716 5713 5710 5708 5706 5705 5702 5701 5699 5698 5697 5696 5694 5693
5733 5736 5737 5737 5736 5737 5736 5736 5736 5735 5733 5731 5728 5726 5723 5720 5719 5718 5719 5718 5717 5715 5714 5713 5712 5711 5709 5708 5707 5704 5701 5697 5695 5692 5690 5687 5685 5685 5683 5681 5681 5681 5681
5726 5726 5727 5727 5728 5728 5727 5726 5724 5722 5720 5719 5716 5714 5710 5708 5707 5705 5704 5703 5702 5701 5701 5700 5700 5699 5698 5696 5694 5691 5689 5686 5683 5680 5677 5674 5672 5670 5668 5667 5668 5669 5670
5718 5717 5717 5718 5718 5718 5717 5714 5710 5708 5706 5704 5702 5701 5701 5696 5693 5692 5691 5690 5690 5689 5687 5686 5685 5684 5684 5682 5680 5677 5674 5672 5670 5667 5665 5662 5660 5658 5656 5654 5655 5656 5657
5705 5706 5706 5706 5705 5705 5704 5701 5698 5696 5689 5686 5687 5687 5685 5682 5679 5679 5677 5676 5675 5675 5676 5674 5673 5670 5668 5666 5664 5662 5659 5657 5655 5653 5652 5650 5649 5647 5644 5643 5642 5642 5641
5687 5689 5692 5692 5692 5690 5687 5686 5685 5682 5680 5677 5675 5674 5673 5666 5667 5663 5663 5661 5660 5660 5660 5660 5659 5657 5655 5653 5650 5648 5645 5644 5642 5640 5638 5638 5637 5635 5632 5632 5630 5630 5628
5676 5674 5673 5676 5676 5676 5675 5674 5673 5671 5668 5664 5663 5660 5654 5657 5649 5649 5648 5647 5646 5646 5647 5647 5645 5642 5639 5637 5637 5634 5631 5629 5627 5627 5626 5626 5624 5622 5620 5619 5618 5617 5615
5662 5663 5663 5664 5662 5662 5661 5659 5656 5651 5645 5648 5642 5639 5639 5635 5636 5633 5634 5635 5633 5634 5633 5632 5630 5628 5627 5623 5622 5619 5617 5614 5613 5613 5613 5612 5611 5611 5610 5609 5607 5606 5604
5651 5650 5653 5652 5652 5653 5652 5640 5643 5637 5636 5631 5627 5627 5626 5624 5624 5623 5622 5621 5621 5621 5620 5618 5617 5614 5612 5609 5607 5605 5603 5601 5600 5600 5600 5600 5599 5599 5598 5597 5596 5594 5591
5639 5639 5637 5636 5636 5634 5632 5629 5627 5624 5623 5621 5618 5616 5616 5616 5614 5612 5610 5610 5609 5608 5606 5604 5602 5600 5598 5595 5593 5590 5589 5588 5588 5588 5588 5588 5587 5587 5586 5585 5584 5581 5579
5625 5627 5627 5625 5624 5620 5617 5615 5613 5612 5610 5608 5607 5604 5602 5601 5601 5599 5597 5596 5595 5593 5592 5589 5588 5586 5585 5583 5580 5576 5576 5576 5575 5576 5577 5576 5575 5574 5573 5573 5571 5569 5567
5615 5614 5614 5612 5609 5607 5606 5604 5602 5601 5599 5597 5595 5591 5589 5588 5586 5584 5581 5579 5578 5577 5577 5575 5573 5572 5571 5569 5568 5565 5564 5563 5564 5563 5564 5563 5563 5563 5562 5561 5560 5559 5557
5601 5603 5602 5601 5598 5597 5594 5592 5588 5587 5586 5583 5581 5578 5576 5574 5572 5569 5565 5564 5564 5563 5562 5563 5560 5559 5558 5557 5556 5553 5552 5552 5552 5552 5552 5553 5552 5552 5551 5550 5550 5548 5544
5588 5585 5587 5587 5586 5584 5582 5581 5578 5575 5573 5570 5566 5564 5562 5560 5558 5556 5554 5552 5551 5551 5550 5550 5549 5548 5547 5548 5545 5545 5543 5542 5542 5542 5543 5543 5543 5542 5541 5539 5539 5536 5531
5577 5575 5573 5573 5573 5573 5572 5570 5568 5565 5563 5560 5556 5553 5552 5550 5548 5546 5545 5543 5542 5540 5539 5538 5538 5538 5537 5538 5537 5536 5534 5534 5534 5533 5533 5532 5532 5532 5531 5530 5527 5523 5520
5566 5565 5565 5564 5563 5562 5561 5560 5557 5555 5552 5549 5547 5546 5544 5542 5541 5539 5538 5536 5533 5531 5529 5527 5526 5528 5526 5526 5527 5526 5525 5525 5524 5524 5524 5523 5522 5522 5521 5519 5516 5512 5510
5556 5556 5555 5555 5553 5551 5551 5550 5547 5545 5542 5541 5540 5538 5537 5535 5534 5532 5529 5527 5524 5521 5518 5516 5515 5515 5516 5515 5515 5515 5515 5515 5514 5514 5515 5514 5513 5512 5511 5508 5505 5502 5500
5543 5543 5542 5542 5542 5542 5542 5540 5538 5535 5532 5531 5530 5529 5528 5527 5524 5522 5520 5517 5514 5512 5508 5505 5504 5503 5505 5505 5505 5505 5505 5506 5506 5506 5505 5505 5504 5502 5499 5496 5495 5492 5490
5530 5529 5530 5530 5530 5531 5530 5529 5528 5526 5524 5523 5521 5520 5518 5516 5513 5511 5509 5507 5504 5502 5498 5495 5494 5494 5494 5496 5496 5496 5496 5497 5498 5497 5496 5495 5493 5491 5488 5486 5485 5482 5480
5518 5518 5520 5520 5520 5520 5520 5519 5518 5517 5516 5514 5512 5510 5507 5504 5501 5499 5497 5495 5493 5491 5488 5485 5485 5485 5486 5486 5486 5487 5488 5489 5488 5487 5486 5484 5482 5480 5478 5476 5475 5473 5472
5507 5508 5509 5510 5511 5511 5510 5509 5507 5506 5505 5503 5501 5498 5494 5491 5488 5485 5483 5482 5481 5480 5478 5476 5476 5477 5477 5478 5478 5479 5479 5479 5479 5478 5476 5475 5473 5471 5469 5467 5465 5464 5463
5495 5498 5498 5499 5500 5501 5500 5499 5497 5496 5494 5491 5488 5484 5480 5476 5472 5470 5469 5468 5468 5468 5467 5467 5468 5468 5469 5470 5471 5471 5470 5470 5469 5468 5467 5465 5463 5461 5460 5459 5457 5456 5455
5484 5485 5487 5489 5490 5490 5489 5488 5486 5484 5482 5478 5474 5469 5463 5458 5454 5452 5452 5453 5454 5455 5456 5457 5458 5460 5461 5461 5461 5461 5460 5460 5459 5458 5457 5455 5454 5453 5452 5450 5449 5448 5447
Wind_Speed
25 33 30 34 34 32 30 31 33 36 38 36 38 40 41 40 39 39 39 40 42 43 43 45 46 48 49 51 51 52 51 51 51 51 52 53 55 55 56 56 55 56 57
32 33 32 32 29 30 30 30 32 37 38 38 40 42 42 43 43 42 43 42 43 45 46 47 49 52 54 55 55 55 55 56 54 54 57 57 57 56 56 56 56 59 60
34 36 31 29 30 29 29 32 34 35 40 40 42 41 44 46 47 45 46 46 45 46 49 52 54 56 59 59 59 60 60 59 59 59 60 60 59 58 56 55 57 58 57
31 34 34 33 30 33 33 31 33 36 42 44 44 45 47 50 51 50 49 49 49 52 54 57 59 62 63 64 64 62 61 62 61 61 60 61 60 58 58 57 56 54 51
38 36 35 33 35 38 38 36 37 38 38 40 46 49 52 56 58 55 54 54 55 57 59 62 64 63 64 63 64 63 62 62 61 60 59 57 58 58 57 57 52 50 48
42 42 40 41 40 39 39 40 42 43 46 46 48 50 54 59 61 61 61 60 61 63 64 64 60 62 63 63 64 62 62 60 60 58 55 53 52 50 50 50 49 48 47
42 44 45 42 40 42 42 45 49 51 54 55 57 58 54 60 63 64 64 64 64 66 64 59 58 59 61 61 61 59 58 58 59 58 57 53 50 49 48 51 48 49 45
42 41 41 41 41 44 47 51 56 58 63 65 63 66 67 62 68 69 64 62 62 63 60 59 59 59 58 57 57 58 59 60 59 59 53 51 50 49 49 54 53 49 42
48 41 37 38 42 50 57 59 63 67 70 70 66 59 68 65 72 69 63 57 57 57 59 59 60 55 56 57 59 59 58 59 57 54 53 49 46 46 43 53 51 45 40
41 43 44 40 38 43 55 58 64 72 71 81 70 57 53 53 46 56 46 48 49 54 56 55 52 54 56 56 54 52 49 52 51 51 52 48 46 47 45 48 48 45 41
42 43 46 49 54 49 46 67 73 79 65 65 65 62 67 61 54 52 53 56 53 52 49 51 53 52 53 50 52 54 57 56 57 56 56 50 45 46 46 46 43 45 47
47 49 49 50 53 51 55 48 70 67 63 77 72 69 67 69 72 68 56 51 51 49 50 52 52 53 49 51 53 56 57 50 48 46 45 43 44 44 45 46 48 49 46
50 53 54 56 57 58 62 64 66 68 69 69 71 63 58 58 59 57 54 53 53 54 53 55 57 54 50 51 55 52 46 44 45 48 47 45 47 47 49 48 46 44 41
56 54 51 50 51 56 56 57 60 61 59 55 57 58 59 57 56 56 56 54 51 48 48 45 44 44 48 52 47 44 45 47 47 50 51 50 49 46 45 45 42 39 41
50 54 52 53 56 54 53 55 58 59 58 56 54 54 52 51 51 52 52 53 52 52 52 53 52 50 51 47 43 43 49 50 48 45 45 44 41 40 39 39 40 42 43
53 52 54 56 58 57 57 58 55 48 46 48 51 52 54 53 51 52 54 55 55 53 51 49 45 44 45 42 44 41 43 41 42 40 37 38 38 36 37 37 39 39 40
50 48 47 48 50 46 42 41 43 44 45 47 49 50 49 45 41 42 45 45 45 45 43 49 45 38 36 39 37 37 37 29 30 30 32 32 33 35 36 35 39 41 41
40 42 42 38 38 39 40 39 35 38 43 46 44 39 33 32 27 20 22 24 27 33 39 40 41 38 30 34 34 31 30 31 33 32 32 31 33 33 35 39 42 38 38
36 34 36 37 38 35 33 33 34 34 40 39 33 31 30 25 22 24 29 29 30 31 33 36 37 40 40 34 38 32 34 30 32 27 29 31 33 34 37 39 38 36 34
37 37 37 37 36 32 32 32 31 31 30 31 34 30 30 30 32 35 37 36 35 38 38 35 36 35 29 29 33 34 33 31 32 29 28 31 33 35 37 37 35 34 34
40 39 37 35 32 29 28 28 31 31 31 33 32 30 32 34 36 39 39 39 42 42 45 36 34 36 36 38 35 32 28 30 28 29 31 34 35 36 36 34 34 32 30
40 37 36 35 34 31 31 31 31 32 34 35 34 36 39 40 43 45 45 44 44 44 43 35 31 31 29 28 29 29 31 32 30 33 34 34 36 37 35 33 32 30 29
37 36 37 37 33 33 34 31 33 35 39 40 42 44 47 49 52 54 53 50 45 44 44 33 32 33 27 27 29 30 31 33 31 30 33 35 35 34 33 31 30 29 29
39 39 40 42 34 35 32 31 35 40 43 45 47 51 53 54 54 53 50 47 43 42 43 32 32 36 29 29 28 27 29 30 31 35 34 33 33 31 30 30 28 28 28
38 39 39 35 34 36 32 32 37 43 44 45 48 51 53 55 56 54 52 49 46 44 36 34 36 35 35 32 29 31 28 29 30 31 32 31 30 29 28 27 27 27 28
38 45 37 36 35 35 33 32 36 36 39 42 47 55 57 56 54 52 47 41 37 31 30 32 29 28 29 33 35 36 34 33 33 32 31 30 28 27 27 27 27 28 27
Wind_Direction
262 254 252 253 263 264 262 255 253 256 257 258 260 263 263 263 265 266 266 269 270 271 271 272 274 275 277 278 280 281 282 284 286 288 290 292 291 291 290 290 286 286 287
251 256 255 257 262 263 260 259 256 256 254 259 260 262 262 265 265 267 268 267 268 270 272 274 278 278 278 279 280 283 284 285 287 289 290 290 290 291 290 288 287 288 288
257 262 263 260 263 265 266 257 253 251 249 253 257 260 263 265 266 266 267 269 271 274 276 275 275 276 277 278 280 282 284 288 291 291 291 292 291 290 288 286 284 285 286
258 268 273 276 278 271 263 260 256 254 252 254 258 259 262 265 266 267 268 270 272 272 273 273 274 276 279 280 282 284 285 287 289 290 291 291 290 288 287 286 286 284 281
276 272 266 266 267 270 273 270 265 260 259 258 257 258 260 262 264 263 263 265 265 266 268 271 274 279 280 282 284 285 285 286 288 288 288 288 288 288 288 286 281 278 272
275 275 273 275 275 272 272 272 267 263 262 262 262 263 263 261 264 266 263 261 261 263 267 272 276 281 282 282 282 284 286 285 286 287 290 291 291 289 287 280 278 274 265
264 267 269 269 269 267 267 266 264 263 264 265 265 265 260 267 264 266 267 265 267 269 270 270 276 279 281 280 281 282 284 285 285 285 286 288 286 279 284 279 272 273 273
269 265 262 263 262 262 258 258 261 263 259 259 258 260 264 260 265 269 266 266 267 268 270 277 275 276 278 281 283 282 282 282 283 286 287 283 283 277 284 280 276 273 275
273 273 277 267 257 250 249 254 251 252 255 255 262 249 258 258 261 260 261 267 270 274 277 277 276 278 279 279 278 281 284 284 284 279 281 279 279 282 284 277 274 274 282
278 283 287 271 267 270 263 254 251 249 247 257 252 251 249 259 271 272 269 273 279 281 280 279 279 277 276 278 280 280 282 282 277 278 279 278 281 279 273 269 279 285 282
271 274 277 275 280 283 274 245 239 243 238 248 277 274 281 285 279 278 278 280 283 283 279 278 279 277 275 274 278 279 277 279 273 273 276 280 278 274 274 280 286 283 280
267 272 271 267 267 262 247 246 243 270 253 272 282 279 279 281 286 291 291 292 291 284 275 274 275 273 272 276 280 280 284 279 276 278 279 273 269 272 280 283 284 280 281
266 273 274 273 269 266 266 267 269 270 271 273 278 285 283 282 285 289 290 288 285 281 274 271 273 272 274 280 284 283 274 274 275 274 273 266 271 279 284 283 281 280 285
279 277 276 271 268 271 275 280 279 280 281 284 289 290 290 289 287 285 284 281 277 274 274 272 277 276 278 279 271 266 266 266 268 270 268 270 276 278 280 279 280 283 283
274 277 275 272 279 277 278 278 276 277 285 290 288 287 286 283 283 279 276 274 277 279 282 283 279 278 277 272 261 259 259 260 263 266 266 270 273 279 278 280 282 282 283
279 277 274 272 272 276 279 277 285 287 285 283 284 285 284 283 280 277 275 274 272 273 265 265 270 266 261 264 262 249 253 261 265 265 267 273 274 272 278 280 282 283 286
279 277 275 274 275 279 280 282 285 287 289 291 293 292 288 284 278 278 280 283 284 282 279 271 280 271 263 251 246 252 259 256 263 268 269 269 275 278 279 280 283 286 287
273 272 271 275 277 279 283 285 289 292 295 298 293 292 290 287 288 292 291 292 287 283 277 274 267 257 256 250 250 253 260 261 265 265 268 275 280 280 282 280 284 287 285
271 269 274 277 282 285 284 286 291 295 305 295 286 294 293 287 287 296 310 305 300 303 286 276 274 270 279 273 252 269 266 266 268 277 278 278 280 278 279 282 285 285 287
273 270 274 281 286 283 285 289 293 295 285 280 289 294 292 288 285 299 305 306 307 316 307 282 274 270 254 261 279 263 260 265 266 272 275 277 276 279 279 280 283 284 286
268 275 282 285 278 273 278 288 282 282 280 280 287 291 287 289 297 304 306 304 305 303 309 282 272 269 254 259 259 260 258 262 270 271 276 280 279 279 280 280 282 285 286
267 273 279 273 273 276 277 277 277 278 278 277 278 281 286 285 294 297 297 297 298 300 304 283 271 270 263 262 259 257 260 264 274 274 274 277 281 283 282 282 282 282 284
260 266 266 268 270 273 275 277 276 275 275 275 276 277 282 284 286 290 292 294 293 298 303 279 259 267 258 263 267 261 263 269 273 270 277 283 286 286 282 279 279 281 280
263 264 261 267 265 272 275 280 276 276 276 278 282 286 288 287 286 287 288 288 286 291 296 272 265 265 263 262 266 265 267 272 271 273 277 282 283 284 283 281 279 280 281
259 264 260 257 264 270 276 285 279 277 280 282 283 286 287 287 284 283 281 280 281 281 277 268 268 263 262 264 261 268 279 275 271 275 280 281 284 285 283 282 281 282 283
259 266 248 256 264 270 277 282 278 283 285 288 292 292 291 288 283 277 274 273 271 267 266 262 260 261 265 262 267 271 275 271 273 277 279 280 281 280 281 280 280 280 281